Regional Weather Roundup
Issued by NWS

Home | Current Version | Previous Version | Graphics & Text | Print | Product List | Glossary Off
Versions: 1 2 3 4 5 6 7 8 9 10 11 12 13 14 15 16 17 18 19 20 21 22 23 24 25 26 27 28 29 30 31 32 33 34 35 36 37 38 39 40 41 42 43 44 45 46 47 48 49 50

000
ASUS43 KMKX 251200
RWRWI

WISCONSIN REGIONAL WEATHER ROUNDUP
NATIONAL WEATHER SERVICE MILWAUKEE/SULLIVAN WI
700 AM CDT FRI MAY 25 2018

NOTE: "FAIR" INDICATES FEW OR NO CLOUDS BELOW 12,000 FEET WITH NO
SIGNIFICANT WEATHER AND/OR OBSTRUCTIONS TO VISIBILITY.

WIZ001-002-006>008-014>016-023>028-251300-
NORTHWEST WISCONSIN

CITY           SKY/WX    TMP DP  RH WIND       PRES   REMARKS
SUPERIOR ARPT  FAIR      58  58 100 SW3       29.75F
6HR MIN TEMP:  49; 6HR MAX TEMP:  58;

ASHLAND        FAIR      70  60  70 S12       29.78R
6HR MIN TEMP:  62; 6HR MAX TEMP:  71;

HAYWARD        LGT RAIN  64  61  90 SE3       29.79F
6HR MIN TEMP:  64; 6HR MAX TEMP:  72; 6HR PCP:  0.05;

SIREN          FAIR      65  59  80 CALM      29.79F
CUMBERLAND     PTSUNNY   63  57  82 CALM      29.82F
RICE LAKE      LGT RAIN  63  61  93 SE9       29.81F
CHETEK         LGT RAIN  63  62  98 E7        29.82F
LADYSMITH      LGT RAIN  65  61  88 SW6       29.88S
6HR MIN TEMP:  62; 6HR MAX TEMP:  68; 6HR PCP:  0.04;

EAU CLAIRE     NOT AVBL
MENOMONIE      CLOUDY    63  63 100 S10G21    29.85F
6HR MIN TEMP:  63; 6HR MAX TEMP:  67; 6HR PCP:  0.24;

NEW RICHMOND   FAIR      64  61  90 S8        29.83F
OSCEOLA        PTSUNNY   65  61  88 S9        29.84F
$$

WIZ003>005-009-010-017-018-251300-
NORTH CENTRAL WISCONSIN

CITY           SKY/WX    TMP DP  RH WIND       PRES   REMARKS
MANITOWISH WTR FAIR      63  63 100 SW8       29.85S
ARBOR VITAE    FAIR      64  60  86 SW3       29.85F
WOODRUFF       FAIR      64  60  86 SW3       29.85F
RHINELANDER    FAIR      68  61  78 SW10      29.87S
6HR MIN TEMP:  63; 6HR MAX TEMP:  70;

EAGLE RIVER    PTSUNNY   63  61  93 CALM      29.85F
LAND O LAKES   CLOUDY    63  60  91 CALM      29.87S
PHILLIPS       LGT RAIN  64  64  99 SW7       29.87S
6HR MIN TEMP:  63; 6HR MAX TEMP:  72; 6HR PCP:  0.01;

TOMAHAWK       FAIR      61  58  90 CALM      29.87F
MEDFORD        FAIR      66  59  78 SW7       29.87S
MERRILL        FAIR      63  61  94 CALM      29.87F
$$

WIZ029-030-035-036-043>047-251300-
CENTRAL WISCONSIN

CITY           SKY/WX    TMP DP  RH WIND       PRES   REMARKS
WAUSAU         FAIR      68  61  78 SW5       29.86S
6HR MIN TEMP:  65; 6HR MAX TEMP:  72;

MOSINEE        PTSUNNY   68  63  83 S6        29.88S
MARSHFIELD     FAIR      68  64  87 SW8       29.88S
6HR MIN TEMP:  62; 6HR MAX TEMP:  71;

STEVENS POINT  FAIR      67  64  89 SW6       29.89S
WAUPACA        FAIR      69  63  80 SW5       29.89R
WAUTOMA        FAIR      67  62  84 SW3       29.90S
6HR MIN TEMP:  59; 6HR MAX TEMP:  68;

WISC RAPIDS    FAIR      70  64  81 SW6       29.89F
6HR MIN TEMP:  63; 6HR MAX TEMP:  75;

CAMP DOUGLAS   NOT AVBL
$$

WIZ011>013-019>022-031-037>040-048>050-251300-
NORTHEAST WISCONSIN

CITY           SKY/WX    TMP DP  RH WIND       PRES   REMARKS
ANTIGO         FAIR      64  62  92 SW3       29.88F
SHAWANO        FAIR      71  63  73 CALM      29.86S
OCONTO         FAIR      69  61  76 SW5       29.85R
STURGEON BAY   FAIR      73  62  68 SW8       29.86F
6HR MIN TEMP:  59; 6HR MAX TEMP:  73;

GREEN BAY      FAIR      70  62  76 S9        29.87S
6HR MIN TEMP:  66; 6HR MAX TEMP:  70;

MANITOWOC      FAIR      69  59  70 S5        29.89S
6HR MIN TEMP:  57; 6HR MAX TEMP:  70;

APPLETON       MOSUNNY   70  57  64 SW8       29.88R
CLINTONVILLE   FAIR      69  61  76 S7        29.86F
OSHKOSH        FAIR      71  60  68 SW8       29.88F
6HR MIN TEMP:  65; 6HR MAX TEMP:  71;

$$

WIZ032>034-041-042-053>061-251300-
SOUTHWEST WISCONSIN

CITY           SKY/WX    TMP DP  RH WIND       PRES   REMARKS
LA CROSSE      FAIR      73  66  78 SE3       29.88R
6HR MIN TEMP:  69; 6HR MAX TEMP:  75;

SPARTA         FAIR      60  60  98 CALM      29.90S
VIROQUA        FAIR      68  64  87 SW5       29.91S
BOSCOBEL       FAIR      67  65  93 CALM      29.89F
6HR MIN TEMP:  61; 6HR MAX TEMP:  68;

PRAIRIE DU CHI FAIR      69  60  73 CALM      29.88F HAZE
PLATTEVILLE    FAIR      69  64  84 S5        29.92F
$$

WIZ056-057-062-063-064-067-068-251300-
SOUTH CENTRAL WISCONSIN

CITY           SKY/WX    TMP DP  RH WIND       PRES   REMARKS
REEDSBURG      FAIR      70  62  74 S5        29.89F
6HR MIN TEMP:  65; 6HR MAX TEMP:  72;

BARABOO/DELLS  FAIR      70  58  67 SW7       29.90F
LONE ROCK      FAIR      69  64  84 E3        29.89F
6HR MIN TEMP:  61; 6HR MAX TEMP:  69;

MINERAL POINT  FAIR      68  63  83 SE3       29.93S
MADISON        FAIR      70  61  73 S5        29.91F
6HR MIN TEMP:  66; 6HR MAX TEMP:  73;

MIDDLETON      FAIR      69  60  73 CALM      29.92F
WATERTOWN      FAIR      65  60  85 S3        29.92S
MONROE         FAIR      66  57  72 S8        29.93S
JANESVILLE     MOSUNNY   68  59  73 VRB5      29.93S
$$

WIZ051-052-058>065-066-070>072-251300-
SOUTHEAST WISCONSIN

CITY           SKY/WX    TMP DP  RH WIND       PRES   REMARKS
MILWAUKEE      FAIR      70  56  61 SW7       29.93S
6HR MIN TEMP:  65; 6HR MAX TEMP:  70;

WAUKESHA       SUNNY     66  54  63 SW6       29.94S
MILWAUKEE/TIMM FAIR      66  52  59 SW3       29.93F
RACINE         FAIR      70  55  59 SW6       29.95S
6HR MIN TEMP:  64; 6HR MAX TEMP:  70;

BURLINGTON     FAIR      64  56  77 S5        29.94S
KENOSHA        FAIR      69  55  60 SW6       29.93F
6HR MIN TEMP:  61; 6HR MAX TEMP:  69;

FOND DU LAC    FAIR      70  58  65 S10       29.90S
6HR MIN TEMP:  65; 6HR MAX TEMP:  70;

SHEBOYGAN      FAIR      68  59  73 S8        29.90S
6HR MIN TEMP:  59; 6HR MAX TEMP:  68;

WEST BEND      FAIR      66  54  63 SW3       29.92S
JUNEAU         FAIR      65  58  78 S5        29.93S
$$

LSZ147-162-251300-
LAKE SUPERIOR

STATION/POSITION TIME  TEMP    WIND        PRES    WAVE
                       AIR SEA DIR/SP/G            HT/PER
                 (UTC) (F)     (DEG/KT/KT) (MB)    (FT/S)
W MID LAKE BUOY  1050   43 36  210/  4/  6 1008.0R   1/ 4
DEVILS ISLAND    1100   46     240/  7/  7 1008.2R
SAXON HARBOR     1140   72     200/  7/ 14 1008.1R
$$

LMZ867-665-643>646-251300-
LAKE MICHIGAN

STATION/POSITION TIME  TEMP    WIND        PRES    WAVE
                       AIR SEA DIR/SP/G            HT/PER
                 (UTC) (F)     (DEG/KT/KT) (MB)    (FT/S)
N MID LAKE BUOY  1140   43 38  160/ 10/ 10 1010.6F
NORTHPORT PIER   1140   56     160/  3/  3 1010.5S
KEWAUNEE LAKESHO 1130          180/  4/  6 1011.0R
SHEBOYGAN LAKESH 1100   64     190/  7/  8 1012.2F
PORT WASHINGTON  1130   65     190/  3/  4 1013.9S
ATWATER BUOY     1107   60 49  190/  6/  8 1013.5    0
MILWAUKEE LAKESH 1130   70     230/  9/ 11   N/A
S MID LAKE BUOY  1050   49 39  180/ 10/ 10 1014.3F   0
KENOSHA   LAKESH 1100   70                 1013.5
$$

TC  - TEMPERATURE IN CELSIUS
VSB - VISIBILITY IN STATUTE MILES
WCI - WIND CHILL INDEX
HX  - HEAT INDEX





USA.gov is the U.S. government's official web portal to all federal, state and local government web resources and services.